Year,Month,Day,Hour,Minute,Value (Times are PST for temperature in C)
2007,08,15,00,00,18.60
2007,08,15,00,01,18.60
2007,08,15,00,02,18.60
2007,08,15,00,03,18.60
2007,08,15,00,04,18.60
2007,08,15,00,05,18.60
2007,08,15,00,06,18.60
2007,08,15,00,07,18.60
2007,08,15,00,08,18.60
2007,08,15,00,09,18.60
2007,08,15,00,10,18.60
2007,08,15,00,11,18.60
2007,08,15,00,12,18.50
2007,08,15,00,13,18.50
2007,08,15,00,14,18.50
2007,08,15,00,15,18.50
2007,08,15,00,16,18.50
2007,08,15,00,17,18.40
2007,08,15,00,18,18.40
2007,08,15,00,19,18.40
2007,08,15,00,20,18.40
2007,08,15,00,21,18.40
2007,08,15,00,22,18.40
2007,08,15,00,23,18.40
2007,08,15,00,24,18.40
2007,08,15,00,25,18.40
2007,08,15,00,26,18.40
2007,08,15,00,27,18.30
2007,08,15,00,28,18.30
2007,08,15,00,29,18.30
2007,08,15,00,30,18.30
2007,08,15,00,31,18.40
2007,08,15,00,32,18.40
2007,08,15,00,33,18.30
2007,08,15,00,34,18.30
2007,08,15,00,35,18.30
2007,08,15,00,36,18.30
2007,08,15,00,37,18.30
2007,08,15,00,38,18.30
2007,08,15,00,39,18.30
2007,08,15,00,40,18.30
2007,08,15,00,41,18.30
2007,08,15,00,42,18.30
2007,08,15,00,43,18.30
2007,08,15,00,44,18.30
2007,08,15,00,45,18.40
2007,08,15,00,46,18.40
2007,08,15,00,47,18.40
2007,08,15,00,48,18.40
2007,08,15,00,49,18.40
2007,08,15,00,50,18.40
2007,08,15,00,51,18.40
2007,08,15,00,52,18.40
2007,08,15,00,53,18.40
2007,08,15,00,54,18.40
2007,08,15,00,55,18.50
2007,08,15,00,56,18.50
2007,08,15,00,57,18.50
2007,08,15,00,58,18.50
2007,08,15,00,59,18.40
2007,08,15,01,00,18.40
2007,08,15,01,01,18.40
2007,08,15,01,02,18.40
2007,08,15,01,03,18.40
2007,08,15,01,04,18.50
2007,08,15,01,05,18.50
2007,08,15,01,06,18.50
2007,08,15,01,07,18.50
2007,08,15,01,08,18.50
2007,08,15,01,09,18.50
2007,08,15,01,10,18.50
2007,08,15,01,11,18.50
2007,08,15,01,12,18.50
2007,08,15,01,13,18.50
2007,08,15,01,14,18.50
2007,08,15,01,15,18.50
2007,08,15,01,16,18.40
2007,08,15,01,17,18.40
2007,08,15,01,18,18.40
2007,08,15,01,19,18.30
2007,08,15,01,20,18.30
2007,08,15,01,21,18.30
2007,08,15,01,22,18.20
2007,08,15,01,23,18.20
2007,08,15,01,24,18.20
2007,08,15,01,25,18.20
2007,08,15,01,26,18.20
2007,08,15,01,27,18.20
2007,08,15,01,28,18.20
2007,08,15,01,29,18.20
2007,08,15,01,30,18.20
2007,08,15,01,31,18.20
2007,08,15,01,32,18.20
2007,08,15,01,33,18.20
2007,08,15,01,34,18.20
2007,08,15,01,35,18.20
2007,08,15,01,36,18.20
2007,08,15,01,37,18.20
2007,08,15,01,38,18.20
2007,08,15,01,39,18.20
2007,08,15,01,40,18.20
2007,08,15,01,41,18.20
2007,08,15,01,42,18.10
2007,08,15,01,43,18.10
2007,08,15,01,44,18.10
2007,08,15,01,45,18.10
2007,08,15,01,46,18.10
2007,08,15,01,47,18.10
2007,08,15,01,48,18.00
2007,08,15,01,49,18.00
2007,08,15,01,50,18.00
2007,08,15,01,51,18.00
2007,08,15,01,52,18.00
2007,08,15,01,53,18.00
2007,08,15,01,54,18.00
2007,08,15,01,55,18.00
2007,08,15,01,56,18.00
2007,08,15,01,57,18.00
2007,08,15,01,58,18.00
2007,08,15,01,59,18.10
2007,08,15,02,00,18.10
2007,08,15,02,01,18.10
2007,08,15,02,02,18.10
2007,08,15,02,03,18.10
2007,08,15,02,04,18.10
2007,08,15,02,05,18.10
2007,08,15,02,06,18.20
2007,08,15,02,07,18.20
2007,08,15,02,08,18.10
2007,08,15,02,09,18.10
2007,08,15,02,10,18.10
2007,08,15,02,11,18.10
2007,08,15,02,12,18.10
2007,08,15,02,13,18.20
2007,08,15,02,14,18.20
2007,08,15,02,15,18.20
2007,08,15,02,16,18.20
2007,08,15,02,17,18.10
2007,08,15,02,18,18.10
2007,08,15,02,19,18.10
2007,08,15,02,20,18.10
2007,08,15,02,21,18.10
2007,08,15,02,22,18.10
2007,08,15,02,23,18.10
2007,08,15,02,24,18.10
2007,08,15,02,25,18.10
2007,08,15,02,26,18.10
2007,08,15,02,27,18.10
2007,08,15,02,28,18.10
2007,08,15,02,29,18.10
2007,08,15,02,30,18.10
2007,08,15,02,31,18.10
2007,08,15,02,32,18.10
2007,08,15,02,33,18.10
2007,08,15,02,34,18.10
2007,08,15,02,35,18.10
2007,08,15,02,36,18.10
2007,08,15,02,37,18.10
2007,08,15,02,38,18.10
2007,08,15,02,39,18.10
2007,08,15,02,40,18.10
2007,08,15,02,41,18.10
2007,08,15,02,42,18.10
2007,08,15,02,43,18.10
2007,08,15,02,44,18.10
2007,08,15,02,45,18.10
2007,08,15,02,46,18.10
2007,08,15,02,47,18.10
2007,08,15,02,48,18.10
2007,08,15,02,49,18.10
2007,08,15,02,50,18.10
2007,08,15,02,51,18.10
2007,08,15,02,52,18.10
2007,08,15,02,53,18.10
2007,08,15,02,54,18.10
2007,08,15,02,55,18.10
2007,08,15,02,56,18.10
2007,08,15,02,57,18.10
2007,08,15,02,58,18.10
2007,08,15,02,59,18.10
2007,08,15,03,00,18.10
2007,08,15,03,01,18.10
2007,08,15,03,02,18.10
2007,08,15,03,03,18.10
2007,08,15,03,04,18.10
2007,08,15,03,05,18.10
2007,08,15,03,06,18.10
2007,08,15,03,07,18.00
2007,08,15,03,08,18.00
2007,08,15,03,09,18.00
2007,08,15,03,10,18.00
2007,08,15,03,11,17.90
2007,08,15,03,12,17.90
2007,08,15,03,13,17.90
2007,08,15,03,14,17.90
2007,08,15,03,15,17.90
2007,08,15,03,16,17.90
2007,08,15,03,17,17.90
2007,08,15,03,18,17.80
2007,08,15,03,19,17.80
2007,08,15,03,20,17.80
2007,08,15,03,21,17.80
2007,08,15,03,22,17.80
2007,08,15,03,23,17.80
2007,08,15,03,24,17.70
2007,08,15,03,25,17.70
2007,08,15,03,26,17.70
2007,08,15,03,27,17.70
2007,08,15,03,28,17.70
2007,08,15,03,29,17.60
2007,08,15,03,30,17.60
2007,08,15,03,31,17.60
2007,08,15,03,32,17.60
2007,08,15,03,33,17.60
2007,08,15,03,34,17.60
2007,08,15,03,35,17.60
2007,08,15,03,36,17.50
2007,08,15,03,37,17.50
2007,08,15,03,38,17.50
2007,08,15,03,39,17.50
2007,08,15,03,40,17.50
2007,08,15,03,41,17.40
2007,08,15,03,42,17.40
2007,08,15,03,43,17.40
2007,08,15,03,44,17.40
2007,08,15,03,45,17.30
2007,08,15,03,46,17.30
2007,08,15,03,47,17.30
2007,08,15,03,48,17.30
2007,08,15,03,49,17.20
2007,08,15,03,50,17.20
2007,08,15,03,51,17.20
2007,08,15,03,52,17.20
2007,08,15,03,53,17.20
2007,08,15,03,54,17.20
2007,08,15,03,55,17.10
2007,08,15,03,56,17.10
2007,08,15,03,57,17.10
2007,08,15,03,58,17.00
2007,08,15,03,59,17.00
2007,08,15,04,00,17.00
2007,08,15,04,01,17.00
2007,08,15,04,02,17.00
2007,08,15,04,03,16.90
2007,08,15,04,04,16.90
2007,08,15,04,05,16.90
2007,08,15,04,06,16.90
2007,08,15,04,07,16.90
2007,08,15,04,08,16.90
2007,08,15,04,09,16.90
2007,08,15,04,10,16.90
2007,08,15,04,11,16.90
2007,08,15,04,12,16.90
2007,08,15,04,13,16.80
2007,08,15,04,14,16.80
2007,08,15,04,15,16.80
2007,08,15,04,16,16.80
2007,08,15,04,17,16.80
2007,08,15,04,18,16.80
2007,08,15,04,19,16.70
2007,08,15,04,20,16.70
2007,08,15,04,21,16.70
2007,08,15,04,22,16.60
2007,08,15,04,23,16.60
2007,08,15,04,24,16.60
2007,08,15,04,25,16.60
2007,08,15,04,26,16.50
2007,08,15,04,27,16.50
2007,08,15,04,28,16.50
2007,08,15,04,29,16.50
2007,08,15,04,30,16.40
2007,08,15,04,31,16.40
2007,08,15,04,32,16.40
2007,08,15,04,33,16.40
2007,08,15,04,34,16.40
2007,08,15,04,35,16.40
2007,08,15,04,36,16.40
2007,08,15,04,37,16.40
2007,08,15,04,38,16.40
2007,08,15,04,39,16.40
2007,08,15,04,40,16.40
2007,08,15,04,41,16.40
2007,08,15,04,42,16.40
2007,08,15,04,43,16.30
2007,08,15,04,44,16.30
2007,08,15,04,45,16.30
2007,08,15,04,46,16.30
2007,08,15,04,47,16.30
2007,08,15,04,48,16.30
2007,08,15,04,49,16.30
2007,08,15,04,50,16.20
2007,08,15,04,51,16.20
2007,08,15,04,52,16.20
2007,08,15,04,53,16.20
2007,08,15,04,54,16.20
2007,08,15,04,55,16.20
2007,08,15,04,56,16.20
2007,08,15,04,57,16.20
2007,08,15,04,58,16.20
2007,08,15,04,59,16.20
2007,08,15,05,00,16.20
2007,08,15,05,01,16.10
2007,08,15,05,02,16.10
2007,08,15,05,03,16.10
2007,08,15,05,04,16.10
2007,08,15,05,05,16.10
2007,08,15,05,06,16.00
2007,08,15,05,07,16.00
2007,08,15,05,08,16.00
2007,08,15,05,09,15.90
2007,08,15,05,10,15.90
2007,08,15,05,11,15.90
2007,08,15,05,12,15.90
2007,08,15,05,13,15.90
2007,08,15,05,14,16.00
2007,08,15,05,15,16.00
2007,08,15,05,16,16.00
2007,08,15,05,17,16.10
2007,08,15,05,18,16.10
2007,08,15,05,19,16.10
2007,08,15,05,20,16.10
2007,08,15,05,21,16.10
2007,08,15,05,22,16.10
2007,08,15,05,23,16.20
2007,08,15,05,24,16.20
2007,08,15,05,25,16.20
2007,08,15,05,26,16.20
2007,08,15,05,27,16.20
2007,08,15,05,28,16.30
2007,08,15,05,29,16.30
2007,08,15,05,30,16.30
2007,08,15,05,31,16.20
2007,08,15,05,32,16.20
2007,08,15,05,33,16.20
2007,08,15,05,34,16.20
2007,08,15,05,35,16.20
2007,08,15,05,36,16.20
2007,08,15,05,37,16.20
2007,08,15,05,38,16.20
2007,08,15,05,39,16.20
2007,08,15,05,40,16.20
2007,08,15,05,41,16.20
2007,08,15,05,42,16.20
2007,08,15,05,43,16.20
2007,08,15,05,44,16.20
2007,08,15,05,45,16.20
2007,08,15,05,46,16.10
2007,08,15,05,47,16.10
2007,08,15,05,48,16.10
2007,08,15,05,49,16.10
2007,08,15,05,50,16.10
2007,08,15,05,51,16.10
2007,08,15,05,52,16.10
2007,08,15,05,53,16.10
2007,08,15,05,54,16.10
2007,08,15,05,55,16.20
2007,08,15,05,56,16.20
2007,08,15,05,57,16.20
2007,08,15,05,58,16.20
2007,08,15,05,59,16.20
2007,08,15,06,00,16.20
2007,08,15,06,01,16.20
2007,08,15,06,02,16.20
2007,08,15,06,03,16.20
2007,08,15,06,04,16.20
2007,08,15,06,05,16.20
2007,08,15,06,06,16.20
2007,08,15,06,07,16.20
2007,08,15,06,08,16.20
2007,08,15,06,09,16.20
2007,08,15,06,10,16.20
2007,08,15,06,11,16.20
2007,08,15,06,12,16.20
2007,08,15,06,13,16.20
2007,08,15,06,14,16.20
2007,08,15,06,15,16.20
2007,08,15,06,16,16.30
2007,08,15,06,17,16.30
2007,08,15,06,18,16.30
2007,08,15,06,19,16.20
2007,08,15,06,20,16.20
2007,08,15,06,21,16.20
2007,08,15,06,22,16.20
2007,08,15,06,23,16.30
2007,08,15,06,24,16.30
2007,08,15,06,25,16.30
2007,08,15,06,26,16.30
2007,08,15,06,27,16.30
2007,08,15,06,28,16.30
2007,08,15,06,29,16.30
2007,08,15,06,30,16.30
2007,08,15,06,31,16.30
2007,08,15,06,32,16.30
2007,08,15,06,33,16.30
2007,08,15,06,34,16.40
2007,08,15,06,35,16.40
2007,08,15,06,36,16.40
2007,08,15,06,37,16.40
2007,08,15,06,38,16.50
2007,08,15,06,39,16.50
2007,08,15,06,40,16.60
2007,08,15,06,41,16.60
2007,08,15,06,42,16.60
2007,08,15,06,43,16.70
2007,08,15,06,44,16.70
2007,08,15,06,45,16.70
2007,08,15,06,46,16.80
2007,08,15,06,47,16.80
2007,08,15,06,48,16.80
2007,08,15,06,49,16.90
2007,08,15,06,50,16.90
2007,08,15,06,51,16.90
2007,08,15,06,52,16.90
2007,08,15,06,53,17.00
2007,08,15,06,54,17.00
2007,08,15,06,55,17.10
2007,08,15,06,56,17.10
2007,08,15,06,57,17.10
2007,08,15,06,58,17.10
2007,08,15,06,59,17.20
2007,08,15,07,00,17.20
2007,08,15,07,01,17.20
2007,08,15,07,02,17.20
2007,08,15,07,03,17.30
2007,08,15,07,04,17.30
2007,08,15,07,05,17.30
2007,08,15,07,06,17.30
2007,08,15,07,07,17.30
2007,08,15,07,08,17.40
2007,08,15,07,09,17.40
2007,08,15,07,10,17.40
2007,08,15,07,11,17.40
2007,08,15,07,12,17.40
2007,08,15,07,13,17.50
2007,08,15,07,14,17.50
2007,08,15,07,15,17.50
2007,08,15,07,16,17.50
2007,08,15,07,17,17.50
2007,08,15,07,18,17.50
2007,08,15,07,19,17.50
2007,08,15,07,20,17.50
2007,08,15,07,21,17.50
2007,08,15,07,22,17.60
2007,08,15,07,23,17.60
2007,08,15,07,24,17.60
2007,08,15,07,25,17.60
2007,08,15,07,26,17.60
2007,08,15,07,27,17.60
2007,08,15,07,28,17.60
2007,08,15,07,29,17.60
2007,08,15,07,30,17.60
2007,08,15,07,31,17.70
2007,08,15,07,32,17.70
2007,08,15,07,33,17.70
2007,08,15,07,34,17.70
2007,08,15,07,35,17.80
2007,08,15,07,36,17.80
2007,08,15,07,37,17.80
2007,08,15,07,38,17.90
2007,08,15,07,39,17.90
2007,08,15,07,40,17.90
2007,08,15,07,41,18.00
2007,08,15,07,42,18.00
2007,08,15,07,43,18.10
2007,08,15,07,44,18.10
2007,08,15,07,45,18.10
2007,08,15,07,46,18.20
2007,08,15,07,47,18.20
2007,08,15,07,48,18.20
2007,08,15,07,49,18.30
2007,08,15,07,50,18.30
2007,08,15,07,51,18.30
2007,08,15,07,52,18.40
2007,08,15,07,53,18.40
2007,08,15,07,54,18.40
2007,08,15,07,55,18.50
2007,08,15,07,56,18.50
2007,08,15,07,57,18.60
2007,08,15,07,58,18.60
2007,08,15,07,59,18.60
2007,08,15,08,00,18.70
2007,08,15,08,01,18.70
2007,08,15,08,02,18.70
2007,08,15,08,03,18.70
2007,08,15,08,04,18.70
2007,08,15,08,05,18.70
2007,08,15,08,06,18.70
2007,08,15,08,07,18.80
2007,08,15,08,08,18.80
2007,08,15,08,09,18.80
2007,08,15,08,10,18.80
2007,08,15,08,11,18.90
2007,08,15,08,12,18.90
2007,08,15,08,13,18.90
2007,08,15,08,14,18.90
2007,08,15,08,15,19.00
2007,08,15,08,16,19.00
2007,08,15,08,17,19.00
2007,08,15,08,18,19.10
2007,08,15,08,19,19.10
2007,08,15,08,20,19.10
2007,08,15,08,21,19.10
2007,08,15,08,22,19.20
2007,08,15,08,23,19.20
2007,08,15,08,24,19.20
2007,08,15,08,25,19.30
2007,08,15,08,26,19.30
2007,08,15,08,27,19.30
2007,08,15,08,28,19.30
2007,08,15,08,29,19.30
2007,08,15,08,30,19.40
2007,08,15,08,31,19.40
2007,08,15,08,32,19.50
2007,08,15,08,33,19.50
2007,08,15,08,34,19.50
2007,08,15,08,35,19.50
2007,08,15,08,36,19.50
2007,08,15,08,37,19.50
2007,08,15,08,38,19.50
2007,08,15,08,39,19.50
2007,08,15,08,40,19.60
2007,08,15,08,41,19.60
2007,08,15,08,42,19.60
2007,08,15,08,43,19.60
2007,08,15,08,44,19.60
2007,08,15,08,45,19.60
2007,08,15,08,46,19.60
2007,08,15,08,47,19.60
2007,08,15,08,48,19.70
2007,08,15,08,49,19.80
2007,08,15,08,50,19.90
2007,08,15,08,51,20.00
2007,08,15,08,52,20.10
2007,08,15,08,53,20.20
2007,08,15,08,54,20.40
2007,08,15,08,55,20.50
2007,08,15,08,56,20.60
2007,08,15,08,57,20.50
2007,08,15,08,58,20.50
2007,08,15,08,59,20.50
2007,08,15,09,00,20.40
2007,08,15,09,01,20.40
2007,08,15,09,02,20.40
2007,08,15,09,03,20.40
2007,08,15,09,04,20.40
2007,08,15,09,05,20.40
2007,08,15,09,06,20.40
2007,08,15,09,07,20.40
2007,08,15,09,08,20.40
2007,08,15,09,09,20.40
2007,08,15,09,10,20.50
2007,08,15,09,11,20.50
2007,08,15,09,12,20.60
2007,08,15,09,13,20.60
2007,08,15,09,14,20.60
2007,08,15,09,15,20.60
2007,08,15,09,16,20.60
2007,08,15,09,17,20.60
2007,08,15,09,18,20.60
2007,08,15,09,19,20.70
2007,08,15,09,20,20.70
2007,08,15,09,21,20.70
2007,08,15,09,22,20.60
2007,08,15,09,23,20.60
2007,08,15,09,24,20.60
2007,08,15,09,25,20.70
2007,08,15,09,26,20.80
2007,08,15,09,27,20.90
2007,08,15,09,28,21.00
2007,08,15,09,29,21.10
2007,08,15,09,30,21.20
2007,08,15,09,31,21.30
2007,08,15,09,32,21.40
2007,08,15,09,33,21.60
2007,08,15,09,34,21.70
2007,08,15,09,35,21.80
2007,08,15,09,36,21.90
2007,08,15,09,37,21.90
2007,08,15,09,38,21.90
2007,08,15,09,39,21.90
2007,08,15,09,40,21.90
2007,08,15,09,41,21.90
2007,08,15,09,42,21.90
2007,08,15,09,43,22.00
2007,08,15,09,44,22.10
2007,08,15,09,45,22.10
2007,08,15,09,46,22.20
2007,08,15,09,47,22.30
2007,08,15,09,48,22.30
2007,08,15,09,49,22.40
2007,08,15,09,50,22.40
2007,08,15,09,51,22.40
2007,08,15,09,52,22.40
2007,08,15,09,53,22.40
2007,08,15,09,54,22.40
2007,08,15,09,55,22.40
2007,08,15,09,56,22.30
2007,08,15,09,57,22.40
2007,08,15,09,58,22.40
2007,08,15,09,59,22.40
2007,08,15,10,00,22.40
2007,08,15,10,01,22.40
2007,08,15,10,02,22.50
2007,08,15,10,03,22.50
2007,08,15,10,04,22.60
2007,08,15,10,05,22.60
2007,08,15,10,06,22.60
2007,08,15,10,07,22.50
2007,08,15,10,08,22.50
2007,08,15,10,09,22.40
2007,08,15,10,10,22.40
2007,08,15,10,11,22.50
2007,08,15,10,12,22.50
2007,08,15,10,13,22.50
2007,08,15,10,14,22.50
2007,08,15,10,15,22.50
2007,08,15,10,16,22.40
2007,08,15,10,17,22.40
2007,08,15,10,18,22.40
2007,08,15,10,19,22.40
2007,08,15,10,20,22.50
2007,08,15,10,21,22.50
2007,08,15,10,22,22.50
2007,08,15,10,23,22.60
2007,08,15,10,24,22.70
2007,08,15,10,25,22.70
2007,08,15,10,26,22.80
2007,08,15,10,27,22.90
2007,08,15,10,28,23.00
2007,08,15,10,29,23.10
2007,08,15,10,30,23.20
2007,08,15,10,31,23.30
2007,08,15,10,32,23.30
2007,08,15,10,33,23.40
2007,08,15,10,34,23.30
2007,08,15,10,35,23.20
2007,08,15,10,36,23.10
2007,08,15,10,37,22.90
2007,08,15,10,38,22.90
2007,08,15,10,39,22.90
2007,08,15,10,40,22.80
2007,08,15,10,41,22.80
2007,08,15,10,42,22.80
2007,08,15,10,43,22.90
2007,08,15,10,44,22.90
2007,08,15,10,45,23.00
2007,08,15,10,46,23.00
2007,08,15,10,47,23.10
2007,08,15,10,48,23.20
2007,08,15,10,49,23.30
2007,08,15,10,50,23.40
2007,08,15,10,51,23.50
2007,08,15,10,52,23.60
2007,08,15,10,53,23.60
2007,08,15,10,54,23.60
2007,08,15,10,55,23.60
2007,08,15,10,56,23.60
2007,08,15,10,57,23.60
2007,08,15,10,58,23.70
2007,08,15,10,59,23.70
2007,08,15,11,00,23.70
2007,08,15,11,01,23.80
2007,08,15,11,02,23.80
2007,08,15,11,03,23.70
2007,08,15,11,04,23.70
2007,08,15,11,05,23.70
2007,08,15,11,06,23.70
2007,08,15,11,07,23.70
2007,08,15,11,08,23.60
2007,08,15,11,09,23.50
2007,08,15,11,10,23.40
2007,08,15,11,11,23.30
2007,08,15,11,12,23.30
2007,08,15,11,13,23.30
2007,08,15,11,14,23.30
2007,08,15,11,15,23.30
2007,08,15,11,16,23.30
2007,08,15,11,17,23.40
2007,08,15,11,18,23.30
2007,08,15,11,19,23.20
2007,08,15,11,20,23.20
2007,08,15,11,21,23.20
2007,08,15,11,22,23.20
2007,08,15,11,23,23.20
2007,08,15,11,24,23.20
2007,08,15,11,25,23.30
2007,08,15,11,26,23.30
2007,08,15,11,27,23.30
2007,08,15,11,28,23.30
2007,08,15,11,29,23.30
2007,08,15,11,30,23.30
2007,08,15,11,31,23.20
2007,08,15,11,32,23.20
2007,08,15,11,33,23.10
2007,08,15,11,34,23.00
2007,08,15,11,35,22.90
2007,08,15,11,36,22.90
2007,08,15,11,37,22.90
2007,08,15,11,38,22.80
2007,08,15,11,39,22.80
2007,08,15,11,40,22.80
2007,08,15,11,41,22.80
2007,08,15,11,42,22.80
2007,08,15,11,43,22.80
2007,08,15,11,44,22.80
2007,08,15,11,45,22.70
2007,08,15,11,46,22.70
2007,08,15,11,47,22.60
2007,08,15,11,48,22.60
2007,08,15,11,49,22.50
2007,08,15,11,50,22.40
2007,08,15,11,51,22.40
2007,08,15,11,52,22.30
2007,08,15,11,53,22.20
2007,08,15,11,54,22.20
2007,08,15,11,55,22.20
2007,08,15,11,56,22.20
2007,08,15,11,57,22.20
2007,08,15,11,58,22.20
2007,08,15,11,59,22.20
2007,08,15,12,00,22.10
2007,08,15,12,01,22.10
2007,08,15,12,02,22.10
2007,08,15,12,03,22.10
2007,08,15,12,04,22.10
2007,08,15,12,05,22.10
2007,08,15,12,06,22.00
2007,08,15,12,07,22.00
2007,08,15,12,08,22.00
2007,08,15,12,09,22.10
2007,08,15,12,10,22.10
2007,08,15,12,11,22.20
2007,08,15,12,12,22.20
2007,08,15,12,13,22.10
2007,08,15,12,14,22.10
2007,08,15,12,15,22.00
2007,08,15,12,16,21.90
2007,08,15,12,17,21.80
2007,08,15,12,18,21.80
2007,08,15,12,19,21.80
2007,08,15,12,20,21.70
2007,08,15,12,21,21.80
2007,08,15,12,22,21.80
2007,08,15,12,23,21.80
2007,08,15,12,24,21.80
2007,08,15,12,25,21.90
2007,08,15,12,26,22.00
2007,08,15,12,27,22.00
2007,08,15,12,28,22.10
2007,08,15,12,29,22.10
2007,08,15,12,30,22.20
2007,08,15,12,31,22.20
2007,08,15,12,32,22.20
2007,08,15,12,33,22.30
2007,08,15,12,34,22.20
2007,08,15,12,35,22.20
2007,08,15,12,36,22.10
2007,08,15,12,37,22.00
2007,08,15,12,38,22.00
2007,08,15,12,39,22.00
2007,08,15,12,40,22.00
2007,08,15,12,41,21.90
2007,08,15,12,42,21.90
2007,08,15,12,43,21.90
2007,08,15,12,44,21.90
2007,08,15,12,45,21.90
2007,08,15,12,46,21.90
2007,08,15,12,47,21.90
2007,08,15,12,48,22.00
2007,08,15,12,49,22.00
2007,08,15,12,50,22.00
2007,08,15,12,51,22.10
2007,08,15,12,52,22.10
2007,08,15,12,53,22.00
2007,08,15,12,54,22.00
2007,08,15,12,55,21.90
2007,08,15,12,56,21.80
2007,08,15,12,57,21.80
2007,08,15,12,58,21.80
2007,08,15,12,59,21.90
2007,08,15,13,00,22.00
2007,08,15,13,01,22.10
2007,08,15,13,02,22.00
2007,08,15,13,03,21.90
2007,08,15,13,04,21.90
2007,08,15,13,05,21.90
2007,08,15,13,06,21.90
2007,08,15,13,07,21.90
2007,08,15,13,08,21.90
2007,08,15,13,09,21.80
2007,08,15,13,10,21.80
2007,08,15,13,11,21.80
2007,08,15,13,12,21.80
2007,08,15,13,13,21.80
2007,08,15,13,14,21.80
2007,08,15,13,15,21.80
2007,08,15,13,16,21.90
2007,08,15,13,17,22.00
2007,08,15,13,18,22.00
2007,08,15,13,19,22.10
2007,08,15,13,20,22.00
2007,08,15,13,21,21.90
2007,08,15,13,22,21.80
2007,08,15,13,23,21.80
2007,08,15,13,24,21.80
2007,08,15,13,25,21.80
2007,08,15,13,26,21.70
2007,08,15,13,27,21.70
2007,08,15,13,28,21.80
2007,08,15,13,29,21.70
2007,08,15,13,30,21.70
2007,08,15,13,31,21.80
2007,08,15,13,32,21.80
2007,08,15,13,33,21.80
2007,08,15,13,34,21.80
2007,08,15,13,35,21.80
2007,08,15,13,36,21.80
2007,08,15,13,37,21.80
2007,08,15,13,38,21.80
2007,08,15,13,39,21.80
2007,08,15,13,40,21.80
2007,08,15,13,41,21.80
2007,08,15,13,42,21.90
2007,08,15,13,43,21.90
2007,08,15,13,44,21.80
2007,08,15,13,45,21.80
2007,08,15,13,46,21.80
2007,08,15,13,47,21.80
2007,08,15,13,48,21.80
2007,08,15,13,49,21.80
2007,08,15,13,50,21.90
2007,08,15,13,51,21.90
2007,08,15,13,52,21.90
2007,08,15,13,53,22.00
2007,08,15,13,54,22.10
2007,08,15,13,55,22.20
2007,08,15,13,56,22.30
2007,08,15,13,57,22.30
2007,08,15,13,58,22.40
2007,08,15,13,59,22.40
2007,08,15,14,00,22.40
2007,08,15,14,01,22.50
2007,08,15,14,02,22.50
2007,08,15,14,03,22.60
2007,08,15,14,04,22.60
2007,08,15,14,05,22.70
2007,08,15,14,06,22.70
2007,08,15,14,07,22.80
2007,08,15,14,08,22.90
2007,08,15,14,09,23.00
2007,08,15,14,10,23.00
2007,08,15,14,11,23.00
2007,08,15,14,12,23.10
2007,08,15,14,13,23.10
2007,08,15,14,14,23.20
2007,08,15,14,15,23.20
2007,08,15,14,16,23.30
2007,08,15,14,17,23.30
2007,08,15,14,18,23.40
2007,08,15,14,19,23.50
2007,08,15,14,20,23.60
2007,08,15,14,21,23.70
2007,08,15,14,22,23.80
2007,08,15,14,23,23.90
2007,08,15,14,24,24.00
2007,08,15,14,25,24.10
2007,08,15,14,26,24.10
2007,08,15,14,27,24.30
2007,08,15,14,28,24.40
2007,08,15,14,29,24.40
2007,08,15,14,30,24.40
2007,08,15,14,31,24.50
2007,08,15,14,32,24.50
2007,08,15,14,33,24.60
2007,08,15,14,34,24.70
2007,08,15,14,35,24.70
2007,08,15,14,36,24.80
2007,08,15,14,37,24.80
2007,08,15,14,38,24.80
2007,08,15,14,39,24.80
2007,08,15,14,40,24.80
2007,08,15,14,41,24.80
2007,08,15,14,42,24.90
2007,08,15,14,43,24.90
2007,08,15,14,44,24.90
2007,08,15,14,45,24.90
2007,08,15,14,46,24.90
2007,08,15,14,47,24.90
2007,08,15,14,48,24.90
2007,08,15,14,49,25.00
2007,08,15,14,50,25.00
2007,08,15,14,51,25.10
2007,08,15,14,52,25.10
2007,08,15,14,53,25.20
2007,08,15,14,54,25.20
2007,08,15,14,55,25.20
2007,08,15,14,56,25.20
2007,08,15,14,57,25.20
2007,08,15,14,58,25.20
2007,08,15,14,59,25.10
2007,08,15,15,00,25.10
2007,08,15,15,01,25.20
2007,08,15,15,02,25.20
2007,08,15,15,03,25.30
2007,08,15,15,04,25.30
2007,08,15,15,05,25.30
2007,08,15,15,06,25.30
2007,08,15,15,07,25.30
2007,08,15,15,08,25.30
2007,08,15,15,09,25.30
2007,08,15,15,10,25.20
2007,08,15,15,11,25.20
2007,08,15,15,12,25.20
2007,08,15,15,13,25.10
2007,08,15,15,14,25.20
2007,08,15,15,15,25.20
2007,08,15,15,16,25.30
2007,08,15,15,17,25.30
2007,08,15,15,18,25.20
2007,08,15,15,19,25.20
2007,08,15,15,20,25.10
2007,08,15,15,21,25.10
2007,08,15,15,22,25.10
2007,08,15,15,23,25.10
2007,08,15,15,24,25.00
2007,08,15,15,25,25.00
2007,08,15,15,26,25.00
2007,08,15,15,27,24.90
2007,08,15,15,28,24.90
2007,08,15,15,29,24.80
2007,08,15,15,30,24.70
2007,08,15,15,31,24.70
2007,08,15,15,32,24.70
2007,08,15,15,33,24.70
2007,08,15,15,34,24.80
2007,08,15,15,35,24.80
2007,08,15,15,36,24.90
2007,08,15,15,37,24.90
2007,08,15,15,38,25.00
2007,08,15,15,39,25.10
2007,08,15,15,40,25.10
2007,08,15,15,41,25.20
2007,08,15,15,42,25.30
2007,08,15,15,43,25.30
2007,08,15,15,44,25.30
2007,08,15,15,45,25.30
2007,08,15,15,46,25.30
2007,08,15,15,47,25.30
2007,08,15,15,48,25.20
2007,08,15,15,49,25.10
2007,08,15,15,50,25.10
2007,08,15,15,51,25.00
2007,08,15,15,52,25.00
2007,08,15,15,53,24.90
2007,08,15,15,54,24.80
2007,08,15,15,55,24.80
2007,08,15,15,56,24.80
2007,08,15,15,57,24.90
2007,08,15,15,58,24.90
2007,08,15,15,59,24.90
2007,08,15,16,00,24.90
2007,08,15,16,01,24.90
2007,08,15,16,02,24.70
2007,08,15,16,03,24.60
2007,08,15,16,04,24.50
2007,08,15,16,05,24.40
2007,08,15,16,06,24.40
2007,08,15,16,07,24.30
2007,08,15,16,08,24.30
2007,08,15,16,09,24.30
2007,08,15,16,10,24.30
2007,08,15,16,11,24.40
2007,08,15,16,12,24.40
2007,08,15,16,13,24.50
2007,08,15,16,14,24.50
2007,08,15,16,15,24.60
2007,08,15,16,16,24.60
2007,08,15,16,17,24.70
2007,08,15,16,18,24.80
2007,08,15,16,19,24.80
2007,08,15,16,20,24.90
2007,08,15,16,21,24.90
2007,08,15,16,22,25.00
2007,08,15,16,23,25.00
2007,08,15,16,24,25.10
2007,08,15,16,25,25.10
2007,08,15,16,26,25.20
2007,08,15,16,27,25.20
2007,08,15,16,28,25.20
2007,08,15,16,29,25.20
2007,08,15,16,30,25.20
2007,08,15,16,31,25.20
2007,08,15,16,32,25.20
2007,08,15,16,33,25.20
2007,08,15,16,34,25.20
2007,08,15,16,35,25.20
2007,08,15,16,36,25.20
2007,08,15,16,37,25.20
2007,08,15,16,38,25.10
2007,08,15,16,39,25.10
2007,08,15,16,40,25.10
2007,08,15,16,41,25.10
2007,08,15,16,42,25.00
2007,08,15,16,43,24.90
2007,08,15,16,44,24.80
2007,08,15,16,45,24.70
2007,08,15,16,46,24.70
2007,08,15,16,47,24.60
2007,08,15,16,48,24.60
2007,08,15,16,49,24.50
2007,08,15,16,50,24.50
2007,08,15,16,51,24.40
2007,08,15,16,52,24.40
2007,08,15,16,53,24.30
2007,08,15,16,54,24.30
2007,08,15,16,55,24.20
2007,08,15,16,56,24.20
2007,08,15,16,57,24.20
2007,08,15,16,58,24.10
2007,08,15,16,59,24.10
2007,08,15,17,00,24.20
2007,08,15,17,01,24.30
2007,08,15,17,02,24.40
2007,08,15,17,03,24.50
2007,08,15,17,04,24.60
2007,08,15,17,05,24.60
2007,08,15,17,06,24.70
2007,08,15,17,07,24.90
2007,08,15,17,08,25.00
2007,08,15,17,09,25.10
2007,08,15,17,10,25.10
2007,08,15,17,11,25.20
2007,08,15,17,12,25.20
2007,08,15,17,13,25.10
2007,08,15,17,14,25.00
2007,08,15,17,15,24.90
2007,08,15,17,16,24.80
2007,08,15,17,17,24.70
2007,08,15,17,18,24.60
2007,08,15,17,19,24.50